sat.trackr.live / text

‹ back to catalog

ONEWEB-0708

NORAD 61613 · 2024-188V

PAYLOAD ACTIVE UNKNOWN

§ Identity

Operator
Country
UK
Launch date
2024-10-20
Launch site
AFWTR
Launch vehicle
Mass (kg)
RCS (m²)

Purposes: comms

External: N2YO · Heavens-Above · Gunter

§ Orbital elements

Epoch: 2026-09-19T14:45:53.055360Z

Period
109.89 min
Inclination
87.8901°
Eccentricity
0.0001831
Mean motion
13.10373941 rev/d
Perigee alt
1,220.3 km
Apogee alt
1,223.1 km
Semi-major
7,599.8 km
B*
1.8133e-3
RAAN
17.4770°
Arg perigee
119.3358°
Mean anomaly
240.7952°
Rev number
9,566

§ Raw data

ONEWEB-07081 61613U 24188V   26262.61519740  .00000646  00000+0  18133-2 0  99942 61613  87.8901  17.4770 0001831 119.3358 240.7952 13.10373941 95668

JSON: /api/v1/satellites/61613 · /tle

For live sub-satellite position, see the globe view (requires WebGL).

§ Visibility from observer

Set your observer location to see the next 7 days of passes ≥ 10°. The values pass through the URL so the page stays shareable.

No JS? Fill the form by hand. The geolocation button needs JavaScript.